• en France
  • Liste des pays
  • À 7 jours
  • Température de l'eau
  • Carte satellitaire
  • Carte météo
  • Widgets météo
  • user-avatar
    Se connecter

    Météo par heure à Maydanskoe

    Ce jour, 19 Octobre, Vendredi

    Heure Température Précipitation Vent Pression Humidité
    00:00 +14°C° 0 mm 2 m/s 715 mmHg 62%
    01:00 +14°C° 0 mm 2 m/s 715 mmHg 59%
    02:00 +14°C° 0 mm 2 m/s 715 mmHg 56%
    03:00 +14°C° 0 mm 2 m/s 715 mmHg 51%
    04:00 +14°C° 0 mm 2 m/s 715 mmHg 49%
    05:00 +13°C° 0 mm 2 m/s 715 mmHg 47%
    06:00 +13°C° 0 mm 2 m/s 715 mmHg 45%
    07:00 +16°C° 0 mm 2 m/s 715 mmHg 40%
    08:00 +18°C° 0 mm 2 m/s 715 mmHg 36%
    09:00 +20°C° 0 mm 2 m/s 716 mmHg 32%
    10:00 +21°C° 0 mm 2 m/s 716 mmHg 31%
    11:00 +23°C° 0 mm 2 m/s 715 mmHg 31%
    12:00 +24°C° 0 mm 3 m/s 715 mmHg 30%
    13:00 +24°C° 0 mm 3 m/s 715 mmHg 34%
    14:00 +24°C° 0 mm 3 m/s 715 mmHg 39%
    15:00 +22°C° 0 mm 3 m/s 715 mmHg 46%
    16:00 +20°C° 0 mm 3 m/s 715 mmHg 56%
    17:00 +18°C° 0 mm 2 m/s 715 mmHg 66%
    18:00 +17°C° 0 mm 2 m/s 714 mmHg 76%
    19:00 +16°C° 0 mm 2 m/s 714 mmHg 74%
    20:00 +16°C° 0 mm 2 m/s 714 mmHg 72%
    21:00 +16°C° 0 mm 2 m/s 714 mmHg 70%
    22:00 +16°C° 0 mm 2 m/s 714 mmHg 69%
    23:00 +15°C° 0 mm 2 m/s 714 mmHg 68%

    Demain, 20 Octobre, Samedi

    Heure Température Précipitation Vent Pression Humidité
    00:00 +15°C° 0 mm 2 m/s 713 mmHg 67%
    01:00 +15°C° 0 mm 2 m/s 713 mmHg 67%
    02:00 +15°C° 0 mm 2 m/s 713 mmHg 66%
    03:00 +14°C° 0 mm 2 m/s 713 mmHg 66%
    04:00 +14°C° 0 mm 2 m/s 713 mmHg 63%
    05:00 +14°C° 0 mm 2 m/s 712 mmHg 59%
    06:00 +14°C° 0 mm 2 m/s 712 mmHg 56%
    07:00 +16°C° 0 mm 2 m/s 712 mmHg 49%
    08:00 +19°C° 0 mm 2 m/s 713 mmHg 41%
    09:00 +22°C° 0 mm 1 m/s 713 mmHg 33%
    10:00 +23°C° 0 mm 2 m/s 713 mmHg 32%
    11:00 +24°C° 0 mm 2 m/s 713 mmHg 32%
    12:00 +24°C° 0 mm 2 m/s 712 mmHg 31%
    13:00 +24°C° 0 mm 2 m/s 712 mmHg 35%
    14:00 +24°C° 0 mm 2 m/s 712 mmHg 38%
    15:00 +24°C° 0 mm 2 m/s 712 mmHg 41%
    16:00 +21°C° 0 mm 2 m/s 712 mmHg 50%
    17:00 +20°C° 0 mm 1 m/s 712 mmHg 59%
    18:00 +18°C° 0 mm 1 m/s 712 mmHg 68%
    19:00 +18°C° 0 mm 1 m/s 712 mmHg 65%
    20:00 +18°C° 0 mm 1 m/s 712 mmHg 63%
    21:00 +16°C° 0 mm 1 m/s 712 mmHg 60%
    22:00 +16°C° 0 mm 1 m/s 712 mmHg 58%
    23:00 +16°C° 0 mm 1 m/s 711 mmHg 56%

    Après-demain, 21 Octobre, Dimanche

    Heure Température Précipitation Vent Pression Humidité
    00:00 +16°C° 0 mm 1 m/s 711 mmHg 54%
    01:00 +16°C° 0 mm 1 m/s 711 mmHg 53%
    02:00 +15°C° 0 mm 1 m/s 711 mmHg 53%
    03:00 +15°C° 0 mm 1 m/s 711 mmHg 52%
    04:00 +15°C° 0 mm 1 m/s 711 mmHg 51%
    05:00 +15°C° 0 mm 1 m/s 711 mmHg 50%
    06:00 +15°C° 0 mm 1 m/s 711 mmHg 49%
    07:00 +18°C° 0 mm 1 m/s 711 mmHg 45%
    08:00 +20°C° 0 mm 1 m/s 712 mmHg 40%
    09:00 +20°C° 0 mm 0 m/s 712 mmHg 35%
    10:00 +23°C° 0 mm 1 m/s 712 mmHg 35%
    11:00 +24°C° 0 mm 1 m/s 712 mmHg 35%
    12:00 +24°C° 0 mm 2 m/s 712 mmHg 35%
    13:00 +24°C° 0 mm 2 m/s 712 mmHg 39%
    14:00 +24°C° 0 mm 2 m/s 712 mmHg 42%
    15:00 +23°C° 0 mm 2 m/s 711 mmHg 46%
    16:00 +21°C° 0 mm 1 m/s 711 mmHg 55%
    17:00 +20°C° 0 mm 1 m/s 711 mmHg 64%
    18:00 +18°C° 0 mm 1 m/s 711 mmHg 73%
    19:00 +18°C° 0 mm 1 m/s 711 mmHg 73%
    20:00 +18°C° 0 mm 1 m/s 712 mmHg 72%
    21:00 +18°C° 0 mm 1 m/s 712 mmHg 71%
    22:00 +18°C° 0 mm 1 m/s 712 mmHg 70%
    23:00 +16°C° 0 mm 1 m/s 711 mmHg 70%

    22 Octobre, Lundi

    Heure Température Précipitation Vent Pression Humidité
    00:00 +16°C° 0 mm 1 m/s 711 mmHg 69%
    01:00 +16°C° 0 mm 1 m/s 711 mmHg 68%
    02:00 +16°C° 0 mm 1 m/s 711 mmHg 67%
    03:00 +15°C° 0 mm 1 m/s 711 mmHg 66%
    04:00 +15°C° 0 mm 1 m/s 711 mmHg 65%
    05:00 +15°C° 0 mm 1 m/s 711 mmHg 64%
    06:00 +15°C° 0 mm 1 m/s 711 mmHg 63%
    07:00 +18°C° 0 mm 1 m/s 712 mmHg 59%
    08:00 +19°C° 0 mm 1 m/s 712 mmHg 54%
    09:00 +21°C° 0 mm 1 m/s 712 mmHg 50%
    10:00 +22°C° 0 mm 1 m/s 712 mmHg 49%
    11:00 +23°C° 0 mm 2 m/s 712 mmHg 48%
    12:00 +23°C° 0 mm 2 m/s 712 mmHg 47%
    13:00 +23°C° 0 mm 2 m/s 712 mmHg 51%
    14:00 +23°C° 0 mm 2 m/s 712 mmHg 55%
    15:00 +21°C° 0 mm 2 m/s 712 mmHg 58%
    16:00 +21°C° 0 mm 1 m/s 712 mmHg 67%
    17:00 +19°C° 0 mm 1 m/s 712 mmHg 75%
    18:00 +18°C° 0 mm 1 m/s 713 mmHg 83%
    19:00 +16°C° 0 mm 0 m/s 713 mmHg 85%
    20:00 +15°C° 0 mm 0 m/s 713 mmHg 86%
    21:00 +15°C° 0 mm 0 m/s 713 mmHg 87%
    22:00 +15°C° 0 mm 0 m/s 713 mmHg 86%
    23:00 +15°C° 0 mm 1 m/s 713 mmHg 85%

    23 Octobre, Mardi

    Heure Température Précipitation Vent Pression Humidité
    00:00 +15°C° 0 mm 1 m/s 713 mmHg 84%
    01:00 +15°C° 0 mm 1 m/s 713 mmHg 82%
    02:00 +15°C° 0 mm 1 m/s 713 mmHg 80%
    03:00 +15°C° 0 mm 1 m/s 712 mmHg 78%
    04:00 +15°C° 0 mm 1 m/s 712 mmHg 76%
    05:00 +15°C° 0 mm 1 m/s 712 mmHg 74%
    06:00 +15°C° 0 mm 1 m/s 712 mmHg 72%
    07:00 +16°C° 0 mm 1 m/s 713 mmHg 66%
    08:00 +19°C° 0 mm 1 m/s 713 mmHg 59%
    09:00 +21°C° 0 mm 1 m/s 713 mmHg 53%
    10:00 +22°C° 0 mm 1 m/s 713 mmHg 51%
    11:00 +23°C° 0 mm 2 m/s 713 mmHg 50%
    12:00 +24°C° 0 mm 2 m/s 713 mmHg 48%
    13:00 +23°C° 0 mm 2 m/s 712 mmHg 50%
    14:00 +23°C° 0 mm 2 m/s 712 mmHg 51%
    15:00 +23°C° 0 mm 2 m/s 712 mmHg 53%
    16:00 +20°C° 0 mm 2 m/s 712 mmHg 61%
    17:00 +20°C° 0 mm 1 m/s 711 mmHg 69%
    18:00 +18°C° 0 mm 1 m/s 711 mmHg 76%
    19:00 +18°C° 0.1 mm 1 m/s 711 mmHg 75%
    20:00 +18°C° 0.1 mm 1 m/s 711 mmHg 73%
    21:00 +18°C° 0.1 mm 1 m/s 711 mmHg 71%
    22:00 +18°C° 0 mm 1 m/s 711 mmHg 69%
    23:00 +18°C° 0 mm 1 m/s 711 mmHg 67%

    24 Octobre, Mercredi

    Heure Température Précipitation Vent Pression Humidité
    00:00 +18°C° 0 mm 1 m/s 710 mmHg 65%
    01:00 +16°C° 0 mm 1 m/s 710 mmHg 64%
    02:00 +16°C° 0 mm 1 m/s 710 mmHg 63%
    03:00 +16°C° 0 mm 1 m/s 710 mmHg 63%
    04:00 +16°C° 0 mm 1 m/s 710 mmHg 63%
    05:00 +16°C° 0 mm 1 m/s 710 mmHg 64%
    06:00 +15°C° 0 mm 1 m/s 710 mmHg 65%
    07:00 +18°C° 0 mm 1 m/s 710 mmHg 60%
    08:00 +20°C° 0 mm 1 m/s 710 mmHg 55%
    09:00 +22°C° 0 mm 1 m/s 710 mmHg 50%
    10:00 +23°C° 0 mm 1 m/s 709 mmHg 48%
    11:00 +24°C° 0 mm 2 m/s 709 mmHg 45%
    12:00 +24°C° 0 mm 2 m/s 709 mmHg 43%
    13:00 +24°C° 0 mm 2 m/s 708 mmHg 44%
    14:00 +24°C° 0 mm 2 m/s 708 mmHg 45%
    15:00 +24°C° 0 mm 2 m/s 707 mmHg 46%
    16:00 +21°C° 0 mm 2 m/s 707 mmHg 51%
    17:00 +20°C° 0 mm 2 m/s 706 mmHg 57%
    18:00 +18°C° 0 mm 2 m/s 706 mmHg 63%
    19:00 +18°C° 0 mm 2 m/s 706 mmHg 61%
    20:00 +18°C° 0 mm 2 m/s 705 mmHg 59%
    21:00 +18°C° 0 mm 3 m/s 705 mmHg 57%
    22:00 +18°C° 0 mm 3 m/s 704 mmHg 57%
    23:00 +18°C° 0 mm 3 m/s 704 mmHg 58%
    Voir plus